Location: Ay?beleni
(36.6500°N, 30.3000°E)
Time: 10:42:59
(UTC+00:00)

Envisat - Pass Details

Date: 08 August 2021
Orbit: 764 x 766 km, 98.2° (Epoch: 21 September)

Event Time Altitude Azimuth Distance (km) Brightness Sun altitude
Rises 02:05:44 0° 31° (NNE) 3,237 7.4 -12.5°
Reaches altitude 10° 02:08:47 10° 51° (NE) 2,305 7.0 -12.0°
Maximum altitude 02:12:11 18° 93° (E) 1,812 5.8 -11.4°
Drops below altitude 10° 02:15:34 10° 135° (SE) 2,294 5.7 -10.8°
Sets 02:18:35 0° 154° (SSE) 3,214 6.2 -10.3°
